AirNav   Pilot Hours Calculator
 
 582 users online  

2K9 Haskell Airport
Haskell, Oklahoma, USA

GOING TO HASKELL?


FAA INFORMATION EFFECTIVE 02 JANUARY 2020

Location

FAA Identifier: 2K9
Lat/Long: 35-49-58.3000N 095-40-02.7000W
35-49.971667N 095-40.045000W
35.8328611,-95.6674167
(estimated)
Elevation: 588 ft. / 179.2 m (surveyed)
Variation: 06E (1985)
From city: 1 mile NE of HASKELL, OK
Time zone: UTC -6 (UTC -5 during Daylight Saving Time)
Zip code: 74436

Airport Operations

Airport use: Open to the public
Activation date: 11/1971
Control tower: no
ARTCC: KANSAS CITY CENTER
FSS: MC ALESTER FLIGHT SERVICE STATION
NOTAMs facility: MLC (NOTAM-D service available)
Attendance: IREG
Wind indicator: yes
Segmented circle: no

Airport Communications

CTAF: 122.9
WX AWOS-3 at OKM (17 nm SW): 118.225 (918-756-9502)
WX ASOS at MKO (18 nm SE): 135.025 (918-683-6987)
WX ASOS at RVS (20 nm NW): PHONE 918-299-0740

Nearby radio navigation aids

VOR radial/distance  VOR name  Freq  Var
OKMr041/12.8OKMULGEE VOR/DME114.9008E
TULr157/22.6TULSA VORTAC114.4008E

 
NDB name  Hdg/Dist  Freq  Var  ID
PRESO067/14.538804EOK --- -.-
HENRYETTA029/30.826704EHET .... . -
WILLIAM POGUE125/31.236206EOWP --- .-- .--.

Airport Services

Fuel available: 100LL
Parking: hangars and tiedowns
Airframe service: NONE
Powerplant service: NONE
Bottled oxygen: NONE
Bulk oxygen: NONE

Runway Information

Runway 17/35

Dimensions: 3710 x 30 ft. / 1131 x 9 m
Surface: asphalt, in fair condition
Runway edge markings: SMALL NUMBERS WITH NTSD CENTERLINE.
RUNWAY 17  RUNWAY 35
Latitude: 35-50.276955N35-49.665347N
Longitude: 095-40.049280W095-40.040760W
Elevation: 587.0 ft.584.0 ft.
Traffic pattern: left
RY 17 & 35 ULTRALIGHTS USE RIGHT TRAFFIC.
left
Runway heading: 173 magnetic, 179 true353 magnetic, 359 true
Markings: NSTD, in good conditionNSTD, in good condition
Obstructions: 58 ft. trees, 200 ft. from runway, 40 ft. right of centerline
56 FT TREES 170 FT FM THLD & 40 FT R.
none
13 FT TREES 20 FT FM THLD & 48 FT R, 20 FT TREES 20 FT FM THLD & 65 FT L, 15 FT ROAD 40 FT FM THLD.

Airport Ownership and Management from official FAA records

Ownership: Privately-owned
Owner: H.E. REYNOLDS
15576 S. 289TH E AVE
COWETA, OK 74429
Phone 918-231-3232
Manager: H.E. REYNOLDS
15576 S. 289TH E. AVE
COWETA, OK 74429
Phone 918-231-3232

Airport Operational Statistics

Aircraft based on the field: 25
Single engine airplanes: 20
Ultralights: 5
    
Aircraft operations: avg 23/week *
96% local general aviation
4% transient general aviation
* for 12-month period ending 21 March 2018

Additional Remarks

ULTRALIGHT ACTIVITY ON & INVOF ARPT.
DALGT OPNS ONLY.
FOR CD CTC KANSAS CITY ARTCC AT 913-254-8508.

Instrument Procedures

There are no published instrument procedures at 2K9.

Some nearby airports with instrument procedures:

KOKM - Okmulgee Regional Airport (17 nm SW)
H68 - Hefner-Easley Airport (18 nm NE)
KMKO - Muskogee-Davis Regional Airport (18 nm SE)
KRVS - Richard Lloyd Jones Jr Airport (20 nm NW)
KTUL - Tulsa International Airport (24 nm NW)
 
Loc | Ops | Rwys | IFR | FBO | Links
Com | Nav | Svcs | Stats | Notes
Area around 2K9 (Haskell Airport)
 
Road maps at: MapQuest Bing Google
 
Aerial photo
WARNING: Photo may not be current or correct
Aerial photo of 2K9 (Haskell Airport)
Photo by Brent Butler
Photo taken 26-Aug-2010
looking North.

Do you have a better or more recent aerial photo of Haskell Airport that you would like to share? If so, please send us your photo.

 
Sectional chart

 
Airport distance calculator
Flying to Haskell Airport? Find the distance to fly.

From to 2K9

Sunrise and sunset
Times for 20-Jan-2020
 Local
(UTC-6)
 Zulu
(UTC)
Morning civil twilight07:0413:04
Sunrise07:3113:31
Sunset17:3623:36
Evening civil twilight18:0400:04

Current date and time
Zulu (UTC)  20-Jan-2020 10:50:36
Local (UTC-6)  20-Jan-2020 04:50:36
 
METAR
KOKM 
17nm SW 
201035Z AUTO RMK AO2 PWINO PNO TSNO
KMKO 
18nm SE 
200953Z AUTO 35005KT 10SM CLR M04/M08 A3062 RMK AO2 SLP375 T10441083
KRVS 
20nm NW 
200953Z AUTO 02003KT 10SM CLR M03/M09 A3062 RMK AO2 SLP377 T10331094
KTUL 
24nm NW 
200953Z 35004KT 10SM CLR M06/M09 A3061 RMK AO2 SLP370 T10561094
KGCM 
29nm N 
201035Z AUTO 00000KT 10SM CLR M06/M12 A3063 RMK AO2
KOWP 
31nm NW 
201035Z AUTO 05003KT 10SM CLR M04/M08 A3060 RMK AO2 T10441084 PWINO
KTQH 
33nm E 
201035Z AUTO 00000KT 10SM CLR M07/M09 A3060 RMK AO2
TAF
KRVS 
20nm NW 
200520Z 2006/2106 VRB04KT P6SM FEW250 FM210000 03007KT P6SM SKC
KTUL 
24nm NW 
200520Z 2006/2106 36007KT P6SM FEW250 FM202100 04008KT P6SM SKC
NOTAMs
Click for the latest NOTAMs
NOTAMs are issued by the DoD/FAA and will open in a separate window not controlled by AirNav.

 

 
 

FBO, Fuel Providers, and Aircraft Ground Support

  
 Business Name 
 
 Contact 
 
 Services / Description 
 
Fuel Prices
 
Comments
  
Haskell Airport 918-231-3232
no information available

If you are affiliated with Haskell Airport and would like to show here your services, contact info, web link, logo, and more, click here
100LL
SS $4.95 
 Updated 07-Jan-2020
 
   write
SS=Self service
Update Fuel Prices
 

Would you like to see your business listed on this page?

 If your business provides an interesting product or service to pilots, flight crews, aircraft, or users of the Haskell Airport, you should consider listing it here.  To start the listing process, click on the button below
 
Add a business
 

Other Pages about Haskell Airport

www.haskellairport.com
 
Update a link
 
Copyright © AirNav, LLC. All rights reserved. Privacy Policy  Contact